Location: Chrząstowo
(52.0654°N, 17.1290°E)
Time: 10:42:47
(UTC+01:00)

ISS - Pass Details

Date: 26 January 2019
Orbit: 403 x 411 km, 51.6° (Epoch: 16 February)

Event Time Altitude Azimuth Distance (km) Brightness Sun altitude
Rises 17:38:10 0° 216° (SW) 2,325 1.0 -10.8°
Reaches altitude 10° 17:40:30 10° 201° (SSW) 1,469 -0.5 -11.1°
Maximum altitude 17:43:10 23° 147° (SSE) 924 -2.2 -11.5°
Enters shadow 17:44:52 16° 106° (ESE) 1,177 -2.0 -11.8°
